Regional Weather Roundup
Issued by NWS Jackson, KY

Home | Current Version | Previous Version | Graphics & Text | Print | Product List | Glossary On
Versions: 1 2 3 4 5 6 7 8 9 10 11 12 13 14 15 16 17 18 19 20 21 22 23 24 25 26 27 28 29 30 31 32 33 34 35 36 37 38 39 40 41 42 43 44 45 46 47 48 49 50
000
ASUS43 KJKL 012011
RWRJKL

EAST KENTUCKY HOURLY WEATHER ROUNDUP
NATIONAL WEATHER SERVICE JACKSON KY
400 PM EDT WED OCT 01 2014

NOTE: "FAIR" INDICATES FEW OR NO CLOUDS BELOW 12,000 FEET WITH
NO SIGNIFICANT WEATHER AND/OR OBSTRUCTIONS TO VISIBILITY.

* THESE REPORTS ARE NOT UNDER NWS QUALITY CONTROL AND MAY NOT
  REPORT WEATHER SUCH AS PRECIPITATION AND FOG.

KYZ079-080-083-085-087-088-110-112-115-119-120-012100
...EASTERN KENTUCKY...

CITY           SKY/WX    TMP DP  RH WIND       PRES   REMARKS
JACKSON        MOSUNNY   78  57  48 VRB3      30.02S
LONDON         MOSUNNY   82  53  36 W5        30.01S
SOMERSET*      PTSUNNY   82  48  30 NW3       30.00S
MONTICELLO*    MOSUNNY   85  55  35 SW6       30.00F
WILLIAMSBURG*  SUNNY     81  55  41 CALM      30.00F
MIDDLESBORO*   MOSUNNY   80  56  43 S3        30.01S
HARLAN APT*    CLOUDY    82  50  32 NW6       30.02S
BLACK MTN*       N/A     66  54  63 VRB5        N/A
PIKEVILLE APT* SUNNY     77  61  57 NW8       30.02S
BIG SANDY*     MOCLDY    78  62  58 W6        30.01F
MOREHEAD APT*  MOCLDY    79  59  50 VRB5      30.02S
$$

KYZ035-036-041-042-044-050-067-078-099-012100
...CENTRAL KENTUCKY...

CITY           SKY/WX    TMP DP  RH WIND       PRES   REMARKS
MT STERLING*   SUNNY     79  61  53 CALM      30.01S
FLEMING/MASON* SUNNY     75  57  53 CALM      30.00F
DANVILLE*      MOSUNNY   81  54  39 CALM      30.00S
RICHMOND*      PTSUNNY   79  55  44 NW3       29.99S
LEXINGTON      SUNNY     82  58  43 VRB5      29.99F
FRANKFORT      SUNNY     79  59  50 VRB3      29.97F
$$

KYZ091>093-OHZ055-061-077-WVZ005-015-034-035-042-012100
...SOUTHERN OHIO/WEST VIRGINIA...

CITY           SKY/WX    TMP DP  RH WIND       PRES   REMARKS
COVINGTON      MOSUNNY   75  54  47 CALM      29.99F
COLUMBUS       MOSUNNY   69  49  48 CALM      30.01F
DAYTON         SUNNY     67  52  58 SE5       30.03F
WILMINGTON     SUNNY     67  48  50 NE3       30.01F
HUNTINGTON     SUNNY     74  61  63 CALM      30.00S
CHARLESTON     PTSUNNY   68  59  73 N5        30.02S
PINEVILLE*     MOSUNNY   79  59  50 MISG      30.07S
BECKLEY        MOSUNNY   75  50  41 NW13      30.05R
BLUEFIELD      SUNNY     75  43  31 NW8       30.07F
$$

VAZ002-007-008-TNZ017-027-036-066-071-012100
...SOUTHWEST VIRGINIA/EAST TENNESSEE...

CITY           SKY/WX    TMP DP  RH WIND       PRES   REMARKS
WISE*          MOSUNNY   73  46  38 N5        30.08S
JONESVILLE*    CLOUDY    81  52  36 CALM      30.03S
ABINGDON*      MOSUNNY   80  49  34 NW8       30.04F
BRISTOL        PTSUNNY   80  45  28 VRB3      30.02S
KNOXVILLE      PTSUNNY   83  54  36 N5        29.98F
OAK RIDGE      SUNNY     83  52  34 E7        30.01S
CROSSVILLE     SUNNY     80  43  26 MISG      30.03F
NASHVILLE      PTSUNNY   86  55  34 CALM      29.94F
$$

...KEY TO REMARKS...
VSB - VISIBILITY IN MILES
WCI - WIND CHILL INDEX
HX  - HEAT INDEX

$$



USA.gov is the U.S. government's official web portal to all federal, state and local government web resources and services.